NINGXIA-1 5 (44783 NORAD) Tracking and Keplerian Element Data

This shows tracking and keplerian element data for the satellite.

Feedback or suggestion? Click here.




ElementValue
Catalog44783
NameNINGXIA-1 5
Epoch Orbit990
Epoch Day22.82004854
Epoch Year2020
RAAN180.2667
Inclination45.0075
Eccentricity0.0011637
Argument of Perigee248.1013
Mean Anonmoly111.8584
Mean Motion14.01674526
Decay Rate-1.3E-06
L11 44783U 19076E 20022.82004854 -.00000130 00000-0 00000+0 0 9990
L22 44783 45.0075 180.2667 0011637 248.1013 111.8584 14.01674526 9908

Live tracking and technical data element details for NINGXIA-1 5 (NORAD 44783). NINGXIA-1 5 can be tracked NOW for your location showing map with azimuth and elevation plus other details from your city location.

Track the satellite on the map from your city or location and see movement details for azimuth, elevation, latitude, longitude, range, height, and movement on the map or in text.







IsCatalogInMostPopularTable: catalog: 44783, numindb: 15
Update: records affected: 1



GetName: 44783 NINGXIA-1 5

Hit Count: updated at: Fri, 24 Jan 2020 10:09:38 GMT